FW8079 Weather Reports


time (UTC)temp
F
wind
direction
speed
knots
gust
knots
rain 1hr
in
rain 24hr
in
rain mn
in
humidity
%
barometer
mb
20260507075717 56 112 1.7 3.5 0.00 0.14 0.14 96 1007.5
20260507075214 56 352 0.0 1.7 0.00 0.14 0.14 97 1007.7
20260507074710 56 66 0.9 3.5 0.00 0.14 0.14 97 1007.2
20260507074209 56 93 0.9 5.2 0.00 0.14 0.14 97 1007.0
20260507073704 56 80 0.0 3.5 0.00 0.14 0.14 98 1007.3
20260507073201 57 78 0.9 3.5 0.00 0.14 0.14 98 1007.2
20260507072659 57 335 1.7 2.6 0.00 0.14 0.14 98 1007.4
20260507072156 57 97 1.7 2.6 0.00 0.14 0.14 98 1007.3
20260507071654 57 304 0.0 2.6 0.00 0.14 0.14 98 1006.8
20260507071149 57 57 0.0 2.6 0.00 0.14 0.14 98 1006.8
20260507070647 57 341 0.0 3.5 0.00 0.14 0.14 98 1007.0
20260507070144 57 321 1.7 3.5 0.00 0.14 0.14 98 1007.0
20260507065640 57 336 2.6 5.2 0.00 0.14 0.14 98 1007.3
20260507065137 57 258 1.7 3.5 0.00 0.14 0.14 98 1007.2
20260507064634 57 93 1.7 3.5 0.00 0.14 0.14 98 1006.8
20260507064133 57 276 0.9 6.1 0.00 0.14 0.14 98 1007.0
20260507063630 58 278 4.3 5.2 0.00 0.14 0.14 98 1006.6
20260507063127 58 0 3.5 3.5 0.00 0.14 0.14 98 1006.3
20260507062624 58 298 2.6 4.3 0.00 0.14 0.14 98 1006.4
20260507062121 58 314 1.7 1.7 0.00 0.14 0.14 98 1006.1
20260507061619 58 282 2.6 2.6 0.00 0.14 0.14 98 1006.4
20260507061117 58 60 1.7 4.3 0.02 0.14 0.14 98 1006.5
20260507060615 59 329 2.6 4.3 0.02 0.14 0.14 98 1006.7
20260507060111 59 126 0.9 1.7 0.00 0.13 0.13 98 1006.8
20260507055606 59 312 1.7 2.6 0.02 0.13 0.13 98 1006.6
20260507055102 60 189 0.0 1.7 0.05 0.13 0.13 99 1007.1
20260507054558 60 341 1.7 2.6 0.12 0.13 0.13 98 1006.8
20260507054056 60 294 1.7 2.6 0.19 0.13 0.13 98 1006.6
20260507053553 60 309 4.3 4.3 0.17 0.11 0.11 98 1006.7
20260507053052 60 353 1.7 3.5 0.17 0.09 0.09 98 1007.0
20260507052549 60 302 3.5 3.5 0.24 0.08 0.08 97 1006.7
20260507052046 61 77 2.6 2.6 0.19 0.06 0.06 96 1006.7
20260507051544 61 4 0.9 1.7 0.12 0.04 0.04 96 1007.6
20260507051040 61 315 2.6 3.5 0.09 0.03 0.03 95 1007.4
20260507050537 61 350 0.0 3.5 0.09 0.02 0.02 92 1006.6
20260507050033 62 315 1.7 3.5 0.09 0.02 0.02 91 1006.9
20260507045530 63 97 0.9 7.0 0.02 0.00 0.00 89 1006.8
20260507045027 63 331 0.0 3.5 0.00 0.00 0.00 86 1007.0
20260507044524 64 316 3.5 4.3 0.00 0.00 0.00 84 1007.3
20260507044021 64 304 1.7 5.2 0.00 0.00 0.00 83 1007.2
20260507043517 64 298 3.5 3.5 0.00 0.00 0.00 83 1007.0
20260507043014 64 343 1.7 6.1 0.00 0.00 0.00 85 1006.8
20260507042510 64 337 2.6 6.1 0.00 0.00 0.00 85 1006.9
20260507042006 64 31 4.3 5.2 0.00 0.00 0.00 87 1006.6
20260507041503 65 314 4.3 4.3 0.00 0.00 0.00 90 1006.5
20260507041000 66 312 2.6 4.3 0.00 0.00 0.00 92 1006.5
20260507040455 66 77 0.0 5.2 0.00 0.00 0.00 92 1006.6
20260507035951 66 301 2.6 2.6 0.00 0.09 0.09 92 1006.2
20260507035448 66 322 0.9 3.5 0.00 0.09 0.09 92 1006.4
20260507034945 66 304 2.6 3.5 0.00 0.09 0.09 92 1006.3
20260507034442 66 311 2.6 4.3 0.00 0.09 0.09 92 1006.3
20260507033940 66 342 0.9 3.5 0.00 0.09 0.09 93 1006.4
20260507033437 66 313 3.5 3.5 0.00 0.09 0.09 93 1006.3
20260507032934 66 309 2.6 5.2 0.00 0.09 0.09 93 1006.3
20260507032431 66 0 1.7 4.3 0.00 0.09 0.09 94 1005.9
20260507031927 66 334 1.7 2.6 0.00 0.09 0.09 94 1006.2
20260507031426 66 309 2.6 6.1 0.00 0.09 0.09 94 1006.1
20260507030921 66 319 1.7 1.7 0.00 0.09 0.09 94 1005.9
20260507030418 66 5 0.9 0.9 0.00 0.09 0.09 94 1005.8
20260507025915 66 354 0.0 1.7 0.00 0.09 0.09 93 1005.9
20260507025412 66 339 1.7 1.7 0.00 0.09 0.09 94 1005.5
20260507024910 66 341 0.9 1.7 0.00 0.09 0.09 94 1005.6
20260507024407 66 334 0.0 1.7 0.00 0.09 0.09 94 1005.8
20260507023903 66 358 0.0 0.9 0.00 0.09 0.09 95 1005.5
20260507023400 66 0 0.0 1.7 0.00 0.09 0.09 95 1005.6
20260507022857 66 27 0.0 1.7 0.00 0.09 0.09 95 1005.8
20260507022354 66 23 0.0 1.7 0.00 0.09 0.09 95 1005.7
20260507021849 66 113 0.0 1.7 0.00 0.09 0.09 95 1005.7
20260507021345 66 0 0.0 0.9 0.00 0.09 0.09 95 1005.9
20260507020843 65 3 0.0 0.9 0.00 0.09 0.09 95 1005.8
20260507020339 65 52 0.0 0.9 0.00 0.09 0.09 95 1005.9
20260507015836 65 61 0.0 0.9 0.00 0.09 0.09 95 1005.6
20260507015335 65 27 0.0 0.0 0.00 0.09 0.09 95 1005.9
20260507014831 65 45 0.9 1.7 0.00 0.09 0.09 94 1005.7
20260507014327 65 71 0.9 0.9 0.00 0.09 0.09 94 1005.9
20260507013824 65 64 0.9 1.7 0.00 0.09 0.09 94 1005.9
20260507013321 66 19 0.9 1.7 0.00 0.09 0.09 94 1005.9
20260507012819 66 43 0.0 0.0 0.00 0.09 0.09 94 1006.2
20260507012314 66 19 0.0 0.0 0.00 0.09 0.09 94 1006.3
20260507011806 65 13 0.0 1.7 0.00 0.09 0.09 94 1006.4
20260507011303 65 350 0.9 0.9 0.00 0.09 0.09 94 1006.5
20260507010802 65 11 0.0 0.0 0.00 0.09 0.09 94 1006.2
20260507010258 65 4 0.0 0.9 0.00 0.09 0.09 93 1006.2
20260507005756 65 47 0.0 0.0 0.00 0.09 0.09 93 1006.0
20260507005252 65 358 0.0 0.9 0.00 0.09 0.09 93 1006.0
20260507004749 65 30 0.0 0.9 0.00 0.09 0.09 92 1005.8
20260507004247 66 346 0.9 0.9 0.00 0.09 0.09 92 1005.9
20260507003743 66 37 0.0 0.9 0.00 0.09 0.09 91 1005.9
20260507003238 66 19 0.0 1.7 0.00 0.09 0.09 90 1005.9
20260507002734 66 32 0.0 0.9 0.00 0.09 0.09 90 1005.8
20260507002230 66 47 0.9 1.7 0.00 0.09 0.09 90 1006.0
20260507001727 66 18 0.0 1.7 0.00 0.09 0.09 90 1005.8
20260507001225 67 351 0.0 1.7 0.00 0.09 0.09 90 1005.9
20260507000721 67 11 0.0 1.7 0.00 0.09 0.09 88 1005.6
20260507000216 68 23 0.0 1.7 0.00 0.09 0.09 88 1005.6
20260506235714 68 85 0.0 1.7 0.00 0.09 0.09 87 1005.5
20260506235209 68 15 0.0 1.7 0.00 0.09 0.09 87 1005.3
20260506234706 68 8 0.0 0.9 0.00 0.09 0.09 86 1005.6
20260506234204 68 123 0.0 1.7 0.00 0.09 0.09 86 1005.4
20260506233701 69 0 0.0 0.9 0.00 0.09 0.09 85 1005.5
20260506233157 69 323 0.9 0.9 0.00 0.09 0.09 84 1005.4
20260506232654 69 25 0.0 1.7 0.00 0.09 0.09 84 1005.1
20260506232149 69 86 0.9 1.7 0.00 0.09 0.09 84 1005.1
20260506231646 69 192 0.9 1.7 0.00 0.09 0.09 83 1005.2
20260506231145 69 346 0.0 1.7 0.00 0.09 0.09 83 1005.2
20260506230641 69 8 0.9 1.7 0.00 0.09 0.09 83 1005.1
20260506230138 70 0 0.0 1.7 0.00 0.09 0.09 82 1005.2
20260506225634 70 330 0.9 1.7 0.00 0.09 0.09 82 1005.2
20260506225131 70 28 0.9 1.7 0.00 0.09 0.09 82 1004.8
20260506224628 70 68 0.0 1.7 0.00 0.09 0.09 81 1004.9
20260506224124 70 130 0.0 2.6 0.00 0.09 0.09 82 1005.2
20260506223621 70 141 1.7 2.6 0.00 0.09 0.09 82 1005.2
20260506223117 70 10 1.7 1.7 0.00 0.09 0.09 82 1005.0
20260506222614 70 68 1.7 2.6 0.00 0.09 0.09 81 1005.1
20260506222110 70 246 0.0 3.5 0.00 0.09 0.09 81 1005.3
20260506221608 70 301 2.6 3.5 0.00 0.09 0.09 81 1005.1
20260506221106 70 152 0.0 3.5 0.00 0.09 0.09 81 1005.5
20260506220602 70 73 0.9 2.6 0.00 0.09 0.09 81 1005.2
20260506220057 70 217 0.9 3.5 0.00 0.09 0.09 80 1005.3
20260506215554 71 178 1.7 1.7 0.00 0.09 0.09 80 1005.5
20260506215049 71 180 0.9 7.0 0.00 0.09 0.09 80 1005.5
20260506214547 71 127 1.7 6.1 0.00 0.09 0.09 80 1005.3
20260506214044 71 40 1.7 3.5 0.00 0.09 0.09 80 1005.2
20260506213543 71 130 0.9 2.6 0.00 0.09 0.09 80 1004.9
20260506213040 71 45 2.6 3.5 0.00 0.09 0.09 80 1005.1
20260506212536 71 147 0.9 4.3 0.00 0.09 0.09 80 1005.1
20260506212031 71 91 1.7 5.2 0.00 0.09 0.09 80 1004.9
20260506211527 70 113 1.7 6.1 0.00 0.09 0.09 80 1004.9
20260506211024 70 325 1.7 5.2 0.00 0.09 0.09 80 1004.7
20260506210521 71 106 1.7 4.3 0.00 0.09 0.09 80 1004.8
20260506210017 71 354 1.7 5.2 0.00 0.09 0.09 80 1004.7
20260506205514 71 240 2.6 3.5 0.00 0.09 0.09 80 1004.4
20260506205009 71 279 0.9 2.6 0.00 0.09 0.09 81 1004.5
20260506204508 70 0 1.7 1.7 0.00 0.09 0.09 81 1004.6
20260506204004 70 21 1.7 3.5 0.00 0.09 0.09 81 1004.7
20260506203502 70 91 1.7 3.5 0.00 0.09 0.09 81 1004.9
20260506202958 70 137 0.9 1.7 0.00 0.09 0.09 81 1004.8
20260506202455 70 133 2.6 5.2 0.00 0.09 0.09 81 1004.6
20260506201946 70 139 1.7 3.5 0.00 0.09 0.09 81 1004.9
20260506201444 70 307 2.6 4.3 0.00 0.09 0.09 82 1004.8
20260506200941 70 359 0.9 7.8 0.00 0.09 0.09 81 1004.8
20260506200437 70 326 1.7 2.6 0.00 0.09 0.09 81 1004.8
20260506195933 70 42 0.9 4.3 0.00 0.09 0.09 81 1004.5
20260506195430 70 168 5.2 5.2 0.00 0.09 0.09 81 1004.5
20260506194927 70 358 0.0 6.1 0.00 0.09 0.09 81 1004.6
20260506194424 70 35 1.7 5.2 0.00 0.09 0.09 82 1004.8
20260506193921 70 116 0.9 4.3 0.00 0.09 0.09 82 1004.9
20260506193418 69 180 1.7 2.6 0.00 0.09 0.09 82 1004.9
20260506192915 69 331 0.9 3.5 0.00 0.09 0.09 82 1004.9
20260506192412 69 327 1.7 4.3 0.00 0.09 0.09 81 1005.0
20260506191909 69 85 1.7 3.5 0.00 0.09 0.09 81 1004.9
20260506191405 69 10 0.9 1.7 0.00 0.09 0.09 81 1005.3
20260506190902 69 352 2.6 2.6 0.00 0.09 0.09 81 1005.3
20260506190358 70 322 3.5 6.1 0.00 0.09 0.09 80 1005.5
20260506185855 70 25 0.9 5.2 0.00 0.09 0.09 80 1005.2
20260506185352 70 260 1.7 5.2 0.00 0.09 0.09 80 1005.4
20260506184849 70 209 2.6 3.5 0.00 0.09 0.09 79 1005.3
20260506184346 70 289 1.7 5.2 0.00 0.09 0.09 80 1005.3
20260506183844 70 19 1.7 5.2 0.00 0.09 0.09 80 1005.3
20260506183339 69 314 0.9 5.2 0.00 0.09 0.09 81 1005.6
20260506182836 69 119 1.7 7.8 0.00 0.09 0.09 80 1005.6
20260506182333 69 173 2.6 3.5 0.00 0.09 0.09 80 1005.6
20260506181831 69 143 1.7 5.2 0.00 0.09 0.09 80 1005.9
20260506181329 69 46 1.7 3.5 0.00 0.09 0.09 80 1006.0
20260506180826 69 35 1.7 5.2 0.00 0.09 0.09 82 1005.8
20260506180321 69 72 1.7 4.3 0.00 0.09 0.09 82 1006.1
20260506175818 68 45 2.6 5.2 0.00 0.09 0.09 81 1006.1
20260506175315 68 223 0.9 5.2 0.00 0.09 0.09 83 1006.0
20260506174812 68 114 3.5 7.0 0.00 0.09 0.09 83 1005.9
20260506174309 68 164 0.9 4.3 0.00 0.09 0.09 84 1006.0
20260506173807 68 98 4.3 6.1 0.00 0.09 0.09 84 1005.9
20260506173303 67 99 3.5 5.2 0.00 0.09 0.09 85 1006.1
20260506172801 66 161 2.6 4.3 0.00 0.09 0.09 86 1006.1
20260506172257 66 232 2.6 11.3 0.00 0.09 0.09 86 1006.4
20260506171755 66 114 3.5 7.0 0.00 0.09 0.09 86 1006.4
20260506171251 66 274 2.6 9.6 0.00 0.09 0.09 87 1006.2
20260506170749 66 70 1.7 7.0 0.00 0.09 0.09 87 1006.2
20260506170245 66 279 2.6 5.2 0.00 0.09 0.09 88 1006.0
20260506165744 66 143 2.6 9.6 0.00 0.09 0.09 89 1006.1
20260506165241 66 93 0.0 3.5 0.00 0.09 0.09 90 1006.3
20260506164738 65 162 2.6 3.5 0.00 0.09 0.09 90 1006.6
20260506164235 65 178 2.6 7.0 0.00 0.09 0.09 91 1006.4
20260506163732 65 124 1.7 8.7 0.00 0.09 0.09 91 1006.3
20260506163226 65 95 2.6 5.2 0.00 0.09 0.09 91 1006.3
20260506162723 65 127 2.6 7.8 0.00 0.09 0.09 92 1006.4
20260506162220 65 277 0.0 2.6 0.00 0.09 0.09 93 1006.3
20260506161717 65 139 1.7 7.8 0.00 0.09 0.09 93 1006.6
20260506161214 64 197 0.9 8.7 0.00 0.09 0.09 93 1006.7
20260506160712 64 304 1.7 4.3 0.02 0.09 0.09 94 1006.9
20260506160203 64 290 2.6 4.3 0.02 0.09 0.09 94 1006.7
20260506155701 64 164 1.7 4.3 0.00 0.09 0.09 94 1006.7
20260506155158 63 309 3.5 4.3 0.00 0.09 0.09 94 1006.8
20260506153300 63 316 0.9 3.5 0.00 0.08 0.08 95 1007.1
20260506152757 63 154 4.3 4.3 0.00 0.08 0.08 95 1007.4
20260506152254 63 345 1.7 7.0 0.02 0.08 0.08 95 1007.4
20260506151753 63 170 0.9 2.6 0.05 0.08 0.08 95 1007.5
20260506151249 63 248 3.5 3.5 0.09 0.07 0.07 95 1007.5
20260506150746 62 117 0.9 5.2 0.07 0.07 0.07 94 1007.5
20260506150243 63 163 1.7 2.6 0.00 0.06 0.06 94 1007.6
20260506145740 63 234 0.9 1.7 0.05 0.06 0.06 94 1007.5
20260506145236 63 32 0.0 2.6 0.09 0.06 0.06 93 1007.8
20260506144734 63 216 0.0 3.5 0.14 0.05 0.05 93 1007.6
20260506144231 63 342 0.0 2.6 0.09 0.04 0.04 92 1007.7
20260506143728 64 122 0.9 1.7 0.05 0.03 0.03 91 1007.6
20260506143225 64 355 1.7 1.7 0.02 0.02 0.02 90 1007.5
20260506142724 64 93 0.9 1.7 0.00 0.02 0.02 89 1007.6
20260506142222 64 331 1.7 2.6 0.02 0.02 0.02 88 1007.5
20260506141720 64 61 1.7 2.6 0.00 0.02 0.02 88 1007.8
20260506141218 64 236 3.5 3.5 0.02 0.02 0.02 88 1007.8
20260506140715 64 132 3.5 4.3 0.05 0.02 0.02 87 1007.7
20260506140212 64 98 2.6 2.6 0.07 0.01 0.01 85 1007.8
20260506135708 65 87 2.6 3.5 0.05 0.01 0.01 83 1007.9
20260506135205 66 150 1.7 5.2 0.00 0.00 0.00 81 1007.7
20260506134702 66 217 0.0 6.1 0.00 0.00 0.00 79 1007.8
20260506134158 66 94 1.7 3.5 0.00 0.00 0.00 77 1007.9
20260506133655 66 119 2.6 3.5 0.00 0.00 0.00 76 1008.1
20260506133151 66 114 1.7 5.2 0.00 0.00 0.00 76 1007.6
20260506132649 66 11 2.6 3.5 0.00 0.00 0.00 77 1007.6
20260506132146 66 158 5.2 5.2 0.00 0.00 0.00 76 1007.8
20260506131644 67 95 3.5 4.3 0.00 0.00 0.00 75 1007.5
20260506131139 67 0 0.0 5.2 0.00 0.00 0.00 74 1007.4
20260506130636 67 289 4.3 7.0 0.00 0.00 0.00 74 1007.2
20260506130134 67 30 2.6 3.5 0.00 0.00 0.00 75 1007.3
20260506125632 67 66 1.7 7.0 0.00 0.00 0.00 73 1007.5
20260506125129 67 279 0.0 3.5 0.00 0.00 0.00 74 1007.6
20260506124627 67 194 0.9 5.2 0.00 0.00 0.00 75 1007.5
20260506124125 67 289 2.6 2.6 0.00 0.00 0.00 75 1007.5
20260506123622 67 161 0.0 4.3 0.00 0.00 0.00 75 1007.6
20260506123121 67 313 2.6 3.5 0.00 0.00 0.00 75 1007.7
20260506122617 67 151 0.9 4.3 0.00 0.00 0.00 75 1007.7
20260506122115 67 145 3.5 5.2 0.00 0.00 0.00 75 1007.6
20260506121612 67 355 1.7 1.7 0.00 0.00 0.00 76 1007.7
20260506121108 67 112 0.0 5.2 0.00 0.00 0.00 75 1007.8
20260506120607 67 129 2.6 5.2 0.00 0.00 0.00 75 1007.6
20260506120103 67 286 0.9 3.5 0.00 0.00 0.00 75 1007.5
20260506115602 67 209 3.5 3.5 0.00 0.00 0.00 75 1007.7
20260506115100 67 147 1.7 3.5 0.00 0.00 0.00 76 1007.4
20260506114557 67 135 3.5 6.1 0.00 0.00 0.00 75 1007.4
20260506114055 67 143 0.9 5.2 0.00 0.00 0.00 76 1007.3
20260506113553 67 133 2.6 4.3 0.00 0.00 0.00 76 1007.3
20260506113050 67 108 1.7 6.1 0.00 0.00 0.00 76 1007.2
20260506112546 67 246 1.7 5.2 0.00 0.00 0.00 77 1007.1
20260506112044 66 1 0.9 5.2 0.00 0.00 0.00 78 1007.2
20260506111541 66 110 3.5 6.1 0.00 0.00 0.00 78 1007.4
20260506111038 66 268 0.0 5.2 0.00 0.00 0.00 79 1007.2
20260506110536 66 165 3.5 4.3 0.00 0.00 0.00 79 1007.2
20260506110033 66 82 3.5 4.3 0.00 0.00 0.00 80 1007.2
20260506105529 66 185 2.6 5.2 0.00 0.00 0.00 80 1007.2
20260506105026 65 145 1.7 2.6 0.00 0.00 0.00 80 1007.2
20260506104524 65 55 1.7 3.5 0.00 0.00 0.00 80 1007.0
20260506104022 66 204 1.7 7.0 0.00 0.00 0.00 80 1006.9
20260506103519 66 295 1.7 5.2 0.00 0.00 0.00 80 1007.0
20260506103016 66 202 1.7 5.2 0.00 0.00 0.00 80 1007.0
20260506102514 66 121 0.9 3.5 0.00 0.00 0.00 80 1007.0
20260506102011 66 146 2.6 2.6 0.00 0.00 0.00 80 1007.1
20260506101508 66 205 2.6 2.6 0.00 0.00 0.00 80 1007.0
20260506101005 65 36 2.6 4.3 0.00 0.00 0.00 80 1007.1
20260506100503 65 96 0.9 2.6 0.00 0.00 0.00 80 1007.1
20260506100001 65 30 1.7 5.2 0.00 0.00 0.00 80 1007.1
20260506095459 66 70 1.7 2.6 0.00 0.00 0.00 79 1006.9
20260506094955 66 84 0.9 4.3 0.00 0.00 0.00 79 1006.9
20260506094453 66 228 1.7 3.5 0.00 0.00 0.00 79 1006.9
20260506093951 66 262 2.6 2.6 0.00 0.00 0.00 80 1007.1
20260506093449 66 317 0.9 5.2 0.00 0.00 0.00 79 1007.0
20260506092946 66 280 0.9 3.5 0.00 0.00 0.00 80 1007.2
20260506092444 66 30 2.6 6.1 0.00 0.00 0.00 79 1007.1
20260506091940 66 337 1.7 2.6 0.00 0.00 0.00 79 1007.2
20260506091439 66 117 2.6 2.6 0.00 0.00 0.00 79 1007.2
20260506090936 66 136 2.6 4.3 0.00 0.00 0.00 79 1007.2
20260506090433 66 341 0.0 2.6 0.00 0.00 0.00 79 1007.2
20260506085929 66 311 4.3 4.3 0.00 0.00 0.00 79 1007.5
20260506085426 66 355 0.9 2.6 0.00 0.00 0.00 79 1007.2
20260506084923 66 340 1.7 4.3 0.00 0.00 0.00 79 1007.2
20260506084420 66 88 0.0 5.2 0.00 0.00 0.00 78 1007.2
20260506083916 66 340 1.7 2.6 0.00 0.00 0.00 78 1007.2
20260506083413 66 178 3.5 3.5 0.00 0.00 0.00 78 1007.4
20260506082911 66 111 1.7 7.0 0.00 0.00 0.00 78 1007.2
20260506082408 66 266 1.7 4.3 0.00 0.00 0.00 78 1007.2
20260506081903 66 154 0.0 3.5 0.00 0.00 0.00 78 1007.4
20260506081402 66 77 1.7 6.1 0.00 0.00 0.00 78 1007.3
20260506080859 67 82 1.7 3.5 0.00 0.00 0.00 78 1007.3
20260506080355 67 104 0.0 3.5 0.00 0.00 0.00 77 1007.1